Regional Weather Roundup
Issued by NWS

Home | Current Version | Previous Version | Text Only | Print | Product List | Glossary On
Versions: 1 2 3 4 5 6 7 8 9 10 11 12 13 14 15 16 17 18 19 20 21 22 23 24 25 26 27 28 29 30 31 32 33 34 35 36 37 38 39 40 41 42 43 44 45 46 47 48 49 50
136
ASUS43 KBIS 251202
RWRND

NORTH DAKOTA REGIONAL WEATHER ROUNDUP
NATIONAL WEATHER SERVICE BISMARCK ND
700 AM CDT MON JUL 25 2016

NOTE: "FAIR" INDICATES FEW OR NO CLOUDS BELOW 12,000 FEET WITH NO
SIGNIFICANT WEATHER AND/OR OBSTRUCTIONS TO VISIBILITY.


NDZ001>003-009>011-017-251300-
NORTHWEST NORTH DAKOTA

CITY           SKY/WX    TMP DP  RH WIND       PRES   REMARKS
WILLISTON      CLEAR     61  56  83 N5        29.96F
6HR MIN TEMP:  58; 6HR MAX TEMP:  69;

MINOT          CLEAR     62  58  86 CALM      29.98F
$$

NDZ018>021-031>035-040>046-251300-
SOUTHWEST NORTH DAKOTA

CITY           SKY/WX    TMP DP  RH WIND       PRES   REMARKS
BISMARCK       CLEAR     60  58  92 NE6       30.01F
6HR MIN TEMP:  59; 6HR MAX TEMP:  65;

DICKINSON      CLEAR     56  51  84 S8        29.99S
GARRISON         N/A     60  59  96 E6        29.99F
6HR MIN TEMP:  58; 6HR MAX TEMP:  62;

HETTINGER ARPT CLEAR     60  50  69 CALM      30.03S
$$

NDZ004>008-012>016-024-026-027-054-251300-
NORTHEAST NORTH DAKOTA

CITY           SKY/WX    TMP DP  RH WIND       PRES   REMARKS
GRAND FORKS    PTCLDY    62  59  90 W3        30.01R
GRND FRKS AFB  CLEAR     63  60  90 VRB1      30.01R
DEVILS LAKE    CLEAR     60  59  96 CALM      30.03S
$$

NDZ022-023-025-028>030-036>039-047>053-251300-
SOUTHEAST NORTH DAKOTA

CITY           SKY/WX    TMP DP  RH WIND       PRES   REMARKS
FARGO          CLEAR     62  57  83 SW6       30.03R
6HR MIN TEMP:  57; 6HR MAX TEMP:  65;

JAMESTOWN      CLEAR     60  58  92 S3        30.04R
$$





USA.gov is the U.S. government's official web portal to all federal, state and local government web resources and services.